Regional Weather Roundup
Issued by NWS Charleston, SC

Current Version | Previous Version | Text Only | Print | Product List | Glossary Off
Versions: 1 2 3 4 5 6 7 8 9 10 11 12 13 14 15 16 17 18 19 20 21 22 23 24 25 26 27 28 29 30 31 32 33 34 35 36 37 38 39 40 41 42 43 44 45 46 47 48 49 50

000
ASUS42 KCHS 281010
RWRCHS
REGIONAL WEATHER ROUNDUP
NATIONAL WEATHER SERVICE CHARLESTON SC
500 AM EST SUN DEC 28 2014

NOTE: "FAIR" INDICATES FEW OR NO CLOUDS BELOW 12,000 FEET WITH NO
SIGNIFICANT WEATHER AND/OR OBSTRUCTIONS TO VISIBILITY.

NOT ALL STATIONS ARE QUALITY CONTROLLED BY THE NATIONAL
WEATHER SERVICE. USE DATA WITH CAUTION...ESPECIALLY
DEWPOINT OBSERVATIONS.

SCZ027-030-031-034>040-042>050-281100-
...SOUTHEAST SOUTH CAROLINA...

CITY           SKY/WX    TMP DP  RH WIND       PRES   REMARKS
N CHARLESTON   CLOUDY    52  49  89 CALM      30.12F
WATERFRONT PRK   N/A     54 N/A N/A CALM        N/A
MOUNT PLEASANT FAIR      50  50 100 CALM      30.12F
PINOPOLIS        N/A     61  52  72 CALM      30.05
MONCKS CORNER  CLOUDY    54  50  87 CALM      30.11F
SUMMERVILLE    CLOUDY    52  52 100 CALM      30.13S
BEAUFORT MCAS  PTCLDY    54  51  90 CALM      30.12F
BEAUFORT ARPT  FAIR      52  52 100 CALM      30.12S
HILTON HEAD IS NOT AVBL
WALTERBORO     CLOUDY    54 N/A N/A CALM      30.13S
ALLENDALE      CLOUDY    55  54  94 CALM      30.12S

...SOUTHERN MIDLANDS AND PEE DEE...

CITY           SKY/WX    TMP DP  RH WIND       PRES   REMARKS
GEORGETOWN     NOT AVBL
KINGSTREE      NOT AVBL
ORANGEBURG     CLOUDY    54  51  90 NW5       30.13R
BARNWELL       CLOUDY    55  54  94 N3        30.14S
AIKEN          CLOUDY    54  54 100 CALM      30.18S
MANNING        CLOUDY    52 N/A N/A CALM      30.13R
COLUMBIA       LGT RAIN  53  51  93 CALM      30.14S
SUMTER         CLOUDY    55  51  88 W6        30.12R
FLORENCE       CLOUDY    52  49  89 CALM      30.12F
MYRTLE BEACH   MOCLDY    52  48  87 CALM      30.12F
N MYRTLE BEACH MOCLDY    51  49  92 CALM      30.11F

$$

GAZ063-065-086>088-099>101-113>116-118-119-134>141-150-281100-
...SOUTHEAST GEORGIA...

CITY           SKY/WX    TMP DP  RH WIND       PRES   REMARKS
SAVANNAH ARPT  PTCLDY    52  49  89 CALM      30.13F
HUNTER AAF     PTCLDY    51  51 100 S2        30.10F
FORT STEWART   PTCLDY    50  48  93 CALM      30.11F
STATESBORO     MOCLDY    53  53 100 CALM      30.12S
SYLVANIA       PTSUNNY   56  55  98 CALM      30.13S
CLAXTON        FAIR      52  52 100 CALM      30.13S

...CSRA...CENTRAL AND FAR SOUTHEAST GEORGIA...

CITY           SKY/WX    TMP DP  RH WIND       PRES   REMARKS
THOMSON        CLOUDY    54  54 100 CALM      30.20F
AUGUSTA-BUSH   CLOUDY    54  52  93 N5        30.15R
AUGUSTA-DANIEL LGT RAIN  55  52  89 N9        30.16R
SWAINSBORO     CLOUDY    59  59 100 CALM      30.13S
VIDALIA        CLOUDY    55  55 100 S3        30.12F
EASTMAN        FAIR      56  56 100 CALM      30.14F
HAZLEHURST     FAIR      59  59 100 CALM      30.11F
ALMA           PTCLDY    53  52  96 CALM      30.12F
WAYCROSS       MOCLDY    55  54  98 CALM      30.13F
JESUP          FAIR      52  52 100 CALM      30.13S
BAXLEY         FAIR      55  55 100 S3        30.12F
BRUNSWICK      PTCLDY    52  52 100 CALM      30.13F
SAINT SIMONS   PTCLDY    55  53  93 CALM      30.13F

$$

SCZ027-028-034-036>038-045-046-048>050-GAZ119-141-281100-
...LAKE AND SUPPLEMENTAL COASTAL OBSERVATIONS...

STATION/POSITION TIME  TEMP    WIND        PRES    WAVE   SWELL
                       AIR SEA DIR/SP/G            HT/PER HT/PER/DIR
                 (UTC) (F)     (DEG/KT/KT) (MB)    (FT/S) (FT/S/D)
UPR LAKE MARION  NOT AVBL
WINYAH BAY       0900   52     250/  1     1020.0S
LAKE MURRAY      0900   54     270/  2/  4 1020.3R
ACE BASIN NERRS  0900   51        CALM     1020.0S
FORT PULASKI     1000   55 56  310/  2/  4 1020.4F
SAPELO ISLAND    0900   53     160/  2     1020.0F

$$

ANZ835-935-AMZ111-154-330-350-352-354-370-450-454-472-281100-
...C-MAN AND BUOY OBSERVATIONS...

STATION/POSITION TIME  TEMP    WIND        PRES    WAVE   SWELL
                       AIR SEA DIR/SP/G            HT/PER HT/PER/DIR
                 (UTC) (F)     (DEG/KT/KT) (MB)    (FT/S) (FT/S/D)
BUOY 41004       1000   72 74  210/  8/  8 1019.6F   2/15   2/15
BUOY 41008       1000   60 59  100/  2/  4 1020.2F   3/16   3/ 50/16
FOLLY BEACH CMAN 0900   56      40/  2/  3 1020.6F
CAPERS NEARSHORE 0900   56      CALM  /  2   N/A
FRIPP NEARSHORE  NOT AVBL


STATION/POSITION TIME  TEMP    WIND        PRES    WAVE   SWELL
                       AIR SEA DIR/SP/G            HT/PER HT/PER/DIR
                 (UTC) (F)     (DEG/KT/KT) (MB)    (FT/S) (FT/S/D)
5E ST. MARYS GA  1000      60                N/A     2/18   2/ 80/18
FRYING PAN BUOY  1000   70 68  200/ 12/ 14 1020.8F   5/15   5/120/15
BUOY 41025       1000   69                 1020.3F   4/14
CAPE LOOKOUT NC  0900   58     320/  1/  1 1020.5F
BUOY 41002       0910   71 74  190/ 12/ 14 1022.1F   5/14   5/ 70/14
BUOY 41010       1000   73 77  130/ 10/ 12 1020.4F   5/16   5/100/16
ST AUGUSTINE FL  1000   61     290/  2/  3 1020.8F


$$


USA.gov is the U.S. government's official web portal to all federal, state and local government web resources and services.